^^
Station Historical Data
 
Tägliche Summe für Juli 22, 2017 Einheiten:  Metrisch    Englisch   Beides
« Vorherige(r) Tag
Nächste(r) Tag »
Tägliche Wöchentliche Monatliche Jährliche Custom
  Aktuell: Hoch: Tief: Durchschnitt:
Temperatur: 25.6 °C 28.8 °C 18.6 °C 22.5 °C
Taupunkt: 12.4 °C 14.7 °C 12.2 °C 13.8 °C
Feuchte: 44% 76% 38% 60%
Windgeschwindigkeit: 3.2km/h 9.7km/h 0.0km/h 3.6km/h
Böen: 9.7km/h 17.7km/h - -
WindWest - - SSE
Luftdruck: 1010.7 hPa 1011.7 hPa 1009.0 hPa -
Regen: 0.0 mm      
Historical Graphs
 
 
Tabelle für Juli 22, 2017
Zeit Temperatur Taupunkt Luftdruck Wind Windgeschwindigkeit Böen Feuchte Regenrate (Std.) Solarstrahlung Wolken
00:01 20.1 °C 13.3 °C 1010.0 hPa ESE 3.2 km/h 3.2 km/h 65% 0.0 mm 0.0 W/m2 CLR
00:06 20.1 °C 13.6 °C 1010.0 hPa ESE 3.2 km/h 3.2 km/h 66% 0.0 mm 0.0 W/m2 CLR
00:11 20.1 °C 13.3 °C 1010.0 hPa ESE 3.2 km/h 3.2 km/h 65% 0.0 mm 0.0 W/m2 CLR
00:16 20.1 °C 13.6 °C 1010.0 hPa ESE 3.2 km/h 3.2 km/h 66% 0.0 mm 0.0 W/m2 CLR
00:21 20.1 °C 13.6 °C 1010.0 hPa ESE 3.2 km/h 3.2 km/h 66% 0.0 mm 0.0 W/m2 CLR
00:26 20.2 °C 13.6 °C 1010.0 hPa ESE 3.2 km/h 3.2 km/h 66% 0.0 mm 0.0 W/m2 CLR
00:31 20.1 °C 13.6 °C 1009.0 hPa ESE 3.2 km/h 3.2 km/h 66% 0.0 mm 0.0 W/m2 CLR
00:36 20.1 °C 13.8 °C 1009.0 hPa ESE 3.2 km/h 3.2 km/h 67% 0.0 mm 0.0 W/m2 CLR
00:41 20.1 °C 13.8 °C 1009.0 hPa ESE 3.2 km/h 3.2 km/h 67% 0.0 mm 0.0 W/m2 CLR
00:46 20.1 °C 13.8 °C 1010.0 hPa ESE 3.2 km/h 3.2 km/h 67% 0.0 mm 0.0 W/m2 CLR
00:51 20.1 °C 14.0 °C 1010.0 hPa ESE 3.2 km/h 3.2 km/h 68% 0.0 mm 0.0 W/m2 CLR
00:56 20.1 °C 14.0 °C 1010.0 hPa ESE 3.2 km/h 3.2 km/h 68% 0.0 mm 0.0 W/m2 CLR
01:01 20.0 °C 13.9 °C 1009.0 hPa ESE 3.2 km/h 3.2 km/h 68% 0.0 mm 0.0 W/m2 CLR
01:06 20.0 °C 13.9 °C 1009.0 hPa ESE 3.2 km/h 3.2 km/h 68% 0.0 mm 0.0 W/m2 CLR
01:11 20.0 °C 13.9 °C 1009.0 hPa ESE 3.2 km/h 3.2 km/h 68% 0.0 mm 0.0 W/m2 CLR
01:16 20.0 °C 13.9 °C 1010.0 hPa ESE 3.2 km/h 3.2 km/h 68% 0.0 mm 0.0 W/m2 CLR
01:21 19.9 °C 14.1 °C 1010.0 hPa ESE 3.2 km/h 3.2 km/h 69% 0.0 mm 0.0 W/m2 CLR
01:26 19.9 °C 14.3 °C 1010.0 hPa ESE 3.2 km/h 3.2 km/h 70% 0.0 mm 0.0 W/m2 CLR
01:31 19.8 °C 14.2 °C 1010.0 hPa ESE 3.2 km/h 3.2 km/h 70% 0.0 mm 0.0 W/m2 CLR
01:36 19.8 °C 14.2 °C 1010.0 hPa ESE 3.2 km/h 3.2 km/h 70% 0.0 mm 0.0 W/m2 CLR
01:41 19.8 °C 14.2 °C 1010.0 hPa ESE 3.2 km/h 3.2 km/h 70% 0.0 mm 0.0 W/m2 CLR
01:46 19.8 °C 14.2 °C 1010.0 hPa ESE 3.2 km/h 3.2 km/h 70% 0.0 mm 0.0 W/m2 CLR
01:51 19.8 °C 14.2 °C 1010.0 hPa ESE 3.2 km/h 3.2 km/h 70% 0.0 mm 0.0 W/m2 CLR
01:56 19.8 °C 14.2 °C 1010.0 hPa ESE 3.2 km/h 3.2 km/h 70% 0.0 mm 0.0 W/m2 CLR
02:01 19.8 °C 14.4 °C 1009.0 hPa ESE 3.2 km/h 3.2 km/h 71% 0.0 mm 0.0 W/m2 CLR
02:06 19.8 °C 14.4 °C 1009.0 hPa ESE 3.2 km/h 3.2 km/h 71% 0.0 mm 0.0 W/m2 CLR
02:11 19.8 °C 14.4 °C 1009.0 hPa ESE 3.2 km/h 3.2 km/h 71% 0.0 mm 0.0 W/m2 CLR
02:16 19.9 °C 14.5 °C 1010.0 hPa ESE 3.2 km/h 3.2 km/h 71% 0.0 mm 0.0 W/m2 CLR
02:21 19.9 °C 14.5 °C 1010.0 hPa ESE 3.2 km/h 3.2 km/h 71% 0.0 mm 0.0 W/m2 CLR
02:26 19.8 °C 14.4 °C 1010.0 hPa ESE 3.2 km/h 3.2 km/h 71% 0.0 mm 0.0 W/m2 CLR
02:31 19.8 °C 14.4 °C 1009.0 hPa ESE 3.2 km/h 3.2 km/h 71% 0.0 mm 0.0 W/m2 CLR
02:36 19.8 °C 14.4 °C 1009.0 hPa ESE 3.2 km/h 3.2 km/h 71% 0.0 mm 0.0 W/m2 CLR
02:41 19.7 °C 14.3 °C 1009.0 hPa ESE 3.2 km/h 3.2 km/h 71% 0.0 mm 0.0 W/m2 CLR
02:46 19.7 °C 14.3 °C 1009.0 hPa ESE 3.2 km/h 3.2 km/h 71% 0.0 mm 0.0 W/m2 CLR
02:51 19.7 °C 14.5 °C 1009.0 hPa ESE 3.2 km/h 3.2 km/h 72% 0.0 mm 0.0 W/m2 CLR
02:56 19.7 °C 14.5 °C 1009.0 hPa ESE 3.2 km/h 3.2 km/h 72% 0.0 mm 0.0 W/m2 CLR
03:01 19.7 °C 14.5 °C 1009.0 hPa ESE 3.2 km/h 3.2 km/h 72% 0.0 mm 0.0 W/m2 BKN
03:06 19.7 °C 14.5 °C 1009.0 hPa ESE 3.2 km/h 3.2 km/h 72% 0.0 mm 0.0 W/m2 BKN
03:11 19.7 °C 14.6 °C 1009.0 hPa ESE 3.2 km/h 3.2 km/h 72% 0.0 mm 0.0 W/m2 BKN
03:16 19.7 °C 14.5 °C 1010.0 hPa ESE 3.2 km/h 3.2 km/h 72% 0.0 mm 0.0 W/m2 BKN
03:21 19.7 °C 14.5 °C 1010.0 hPa ESE 3.2 km/h 3.2 km/h 72% 0.0 mm 0.0 W/m2 BKN
03:26 19.6 °C 14.4 °C 1010.0 hPa ESE 3.2 km/h 3.2 km/h 72% 0.0 mm 0.0 W/m2 BKN
03:31 19.6 °C 14.4 °C 1009.0 hPa ESE 3.2 km/h 3.2 km/h 72% 0.0 mm 0.0 W/m2 BKN
03:36 19.5 °C 14.3 °C 1009.0 hPa ESE 3.2 km/h 3.2 km/h 72% 0.0 mm 0.0 W/m2 BKN
03:41 19.5 °C 14.3 °C 1009.0 hPa ESE 3.2 km/h 3.2 km/h 72% 0.0 mm 0.0 W/m2 BKN
03:46 19.5 °C 14.3 °C 1009.0 hPa ESE 3.2 km/h 3.2 km/h 72% 0.0 mm 0.0 W/m2 BKN
03:51 19.5 °C 14.6 °C 1009.0 hPa ESE 3.2 km/h 3.2 km/h 73% 0.0 mm 0.0 W/m2 BKN
03:56 19.5 °C 14.6 °C 1009.0 hPa ESE 3.2 km/h 3.2 km/h 73% 0.0 mm 0.0 W/m2 BKN
04:01 19.5 °C 14.6 °C 1010.0 hPa ESE 3.2 km/h 3.2 km/h 73% 0.0 mm 0.0 W/m2 BKN
04:06 19.4 °C 14.4 °C 1010.0 hPa ESE 3.2 km/h 3.2 km/h 73% 0.0 mm 0.0 W/m2 BKN
04:11 19.4 °C 14.4 °C 1010.0 hPa ESE 3.2 km/h 3.2 km/h 73% 0.0 mm 0.0 W/m2 BKN
04:16 19.4 °C 14.4 °C 1010.0 hPa ESE 3.2 km/h 3.2 km/h 73% 0.0 mm 0.0 W/m2 BKN
04:21 19.3 °C 14.3 °C 1010.0 hPa ESE 3.2 km/h 3.2 km/h 73% 0.0 mm 0.0 W/m2 BKN
04:26 19.3 °C 14.6 °C 1010.0 hPa ESE 3.2 km/h 3.2 km/h 74% 0.0 mm 0.0 W/m2 BKN
04:31 19.2 °C 14.4 °C 1010.0 hPa ESE 3.2 km/h 3.2 km/h 74% 0.0 mm 0.0 W/m2 BKN
04:36 19.3 °C 14.6 °C 1010.0 hPa ESE 3.2 km/h 3.2 km/h 74% 0.0 mm 0.0 W/m2 BKN
04:41 19.2 °C 14.4 °C 1010.0 hPa ESE 3.2 km/h 3.2 km/h 74% 0.0 mm 0.0 W/m2 BKN
04:46 19.1 °C 14.3 °C 1010.0 hPa ESE 3.2 km/h 3.2 km/h 74% 0.0 mm 0.0 W/m2 BKN
04:51 19.1 °C 14.3 °C 1010.0 hPa ESE 3.2 km/h 3.2 km/h 74% 0.0 mm 0.0 W/m2 BKN
04:56 19.1 °C 14.6 °C 1010.0 hPa ESE 3.2 km/h 3.2 km/h 75% 0.0 mm 0.0 W/m2 BKN
05:01 19.1 °C 14.6 °C 1010.0 hPa ESE 3.2 km/h 3.2 km/h 75% 0.0 mm 0.0 W/m2 BKN
05:06 19.0 °C 14.4 °C 1010.0 hPa ESE 3.2 km/h 3.2 km/h 75% 0.0 mm 0.0 W/m2 BKN
05:11 18.9 °C 14.4 °C 1010.0 hPa ESE 3.2 km/h 3.2 km/h 75% 0.0 mm 0.0 W/m2 BKN
05:16 18.8 °C 14.3 °C 1010.0 hPa ESE 3.2 km/h 3.2 km/h 75% 0.0 mm 0.0 W/m2 BKN
05:26 18.8 °C 14.3 °C 1010.0 hPa ESE 3.2 km/h 3.2 km/h 75% 0.0 mm 0.0 W/m2 BKN
05:31 18.9 °C 14.4 °C 1010.0 hPa ESE 3.2 km/h 3.2 km/h 75% 0.0 mm 0.0 W/m2 SCT
05:36 18.9 °C 14.4 °C 1010.0 hPa ESE 3.2 km/h 3.2 km/h 75% 0.0 mm 0.0 W/m2 SCT
05:41 18.9 °C 14.4 °C 1010.0 hPa ESE 3.2 km/h 3.2 km/h 75% 0.0 mm 0.0 W/m2 SCT
05:46 18.9 °C 14.4 °C 1010.0 hPa ESE 3.2 km/h 3.2 km/h 75% 0.0 mm 0.2 W/m2 SCT
05:51 18.8 °C 14.3 °C 1010.0 hPa ESE 3.2 km/h 3.2 km/h 75% 0.0 mm 0.8 W/m2 SCT
05:56 18.7 °C 14.2 °C 1010.0 hPa ESE 3.2 km/h 3.2 km/h 75% 0.0 mm 1.6 W/m2 SCT
06:01 18.7 °C 14.2 °C 1010.0 hPa ESE 3.2 km/h 3.2 km/h 75% 0.0 mm 2.5 W/m2 SCT
06:06 18.6 °C 14.1 °C 1010.0 hPa ESE 3.2 km/h 3.2 km/h 75% 0.0 mm 3.4 W/m2 SCT
06:11 18.6 °C 14.1 °C 1010.0 hPa ESE 3.2 km/h 3.2 km/h 75% 0.0 mm 5.0 W/m2 SCT
06:16 18.6 °C 14.1 °C 1010.0 hPa ESE 3.2 km/h 3.2 km/h 75% 0.0 mm 6.3 W/m2 SCT
06:21 18.6 °C 14.3 °C 1010.0 hPa ESE 3.2 km/h 3.2 km/h 76% 0.0 mm 14.0 W/m2 SCT
06:26 18.6 °C 14.3 °C 1010.0 hPa ESE 3.2 km/h 3.2 km/h 76% 0.0 mm 22.2 W/m2 SCT
06:31 18.7 °C 14.4 °C 1010.0 hPa ESE 3.2 km/h 3.2 km/h 76% 0.0 mm 33.4 W/m2 FEW
06:36 18.7 °C 14.4 °C 1010.0 hPa ESE 3.2 km/h 3.2 km/h 76% 0.0 mm 42.5 W/m2 FEW
06:41 18.8 °C 14.3 °C 1010.0 hPa ESE 3.2 km/h 3.2 km/h 75% 0.0 mm 50.1 W/m2 FEW
06:46 18.8 °C 14.3 °C 1010.7 hPa ESE 3.2 km/h 3.2 km/h 75% 0.0 mm 58.0 W/m2 FEW
06:51 18.9 °C 14.4 °C 1010.7 hPa ESE 3.2 km/h 3.2 km/h 75% 0.0 mm 69.5 W/m2 FEW
06:56 18.9 °C 14.4 °C 1010.7 hPa ESE 3.2 km/h 3.2 km/h 75% 0.0 mm 112.5 W/m2 FEW
07:01 19.1 °C 14.3 °C 1010.0 hPa ESE 3.2 km/h 3.2 km/h 74% 0.0 mm 124.5 W/m2 FEW
07:06 19.1 °C 14.2 °C 1010.0 hPa ESE 3.2 km/h 3.2 km/h 73% 0.0 mm 106.4 W/m2 BKN
07:11 19.3 °C 14.3 °C 1010.0 hPa ESE 3.2 km/h 3.2 km/h 73% 0.0 mm 145.1 W/m2 FEW
07:16 19.4 °C 14.2 °C 1010.0 hPa ESE 3.2 km/h 3.2 km/h 72% 0.0 mm 98.4 W/m2 BKN
07:21 19.5 °C 14.1 °C 1010.0 hPa ESE 3.2 km/h 3.2 km/h 71% 0.0 mm 106.3 W/m2 BKN
07:26 19.5 °C 14.1 °C 1010.0 hPa ESE 3.2 km/h 3.2 km/h 71% 0.0 mm 110.4 W/m2 BKN
07:31 19.6 °C 14.2 °C 1010.0 hPa ESE 3.2 km/h 3.2 km/h 71% 0.0 mm 117.2 W/m2 BKN
07:36 19.7 °C 14.3 °C 1010.0 hPa ESE 3.2 km/h 3.2 km/h 71% 0.0 mm 124.9 W/m2 BKN
07:41 19.7 °C 14.3 °C 1010.0 hPa ESE 3.2 km/h 3.2 km/h 71% 0.0 mm 132.7 W/m2 BKN
07:46 19.7 °C 14.3 °C 1010.7 hPa ESE 3.2 km/h 3.2 km/h 71% 0.0 mm 153.1 W/m2 BKN
07:51 19.7 °C 14.3 °C 1010.7 hPa ESE 3.2 km/h 3.2 km/h 71% 0.0 mm 190.2 W/m2 BKN
08:01 19.8 °C 14.4 °C 1010.7 hPa ESE 3.2 km/h 3.2 km/h 71% 0.0 mm 226.2 W/m2 FEW
08:06 19.8 °C 14.4 °C 1010.7 hPa ESE 3.2 km/h 3.2 km/h 71% 0.0 mm 253.5 W/m2 FEW
08:11 19.8 °C 14.4 °C 1010.7 hPa ESE 3.2 km/h 3.2 km/h 71% 0.0 mm 304.2 W/m2 FEW
08:16 19.9 °C 14.5 °C 1010.7 hPa ESE 3.2 km/h 3.2 km/h 71% 0.0 mm 321.7 W/m2 FEW
08:21 20.1 °C 14.7 °C 1010.7 hPa ESE 3.2 km/h 3.2 km/h 71% 0.0 mm 337.4 W/m2 FEW
08:26 20.3 °C 14.6 °C 1010.7 hPa ESE 3.2 km/h 3.2 km/h 70% 0.0 mm 344.7 W/m2 FEW
08:31 20.4 °C 14.5 °C 1010.7 hPa ESE 3.2 km/h 3.2 km/h 69% 0.0 mm 365.1 W/m2 SCT
08:36 20.5 °C 14.4 °C 1010.7 hPa ESE 3.2 km/h 3.2 km/h 68% 0.0 mm 379.6 W/m2 SCT
08:41 20.6 °C 14.0 °C 1010.7 hPa ESE 3.2 km/h 3.2 km/h 66% 0.0 mm 394.3 W/m2 SCT
08:46 20.7 °C 13.9 °C 1010.7 hPa ESE 3.2 km/h 3.2 km/h 65% 0.0 mm 408.1 W/m2 SCT
08:51 20.7 °C 13.9 °C 1010.7 hPa ESE 3.2 km/h 3.2 km/h 65% 0.0 mm 422.7 W/m2 SCT
08:56 20.8 °C 13.9 °C 1010.7 hPa ESE 3.2 km/h 3.2 km/h 65% 0.0 mm 438.3 W/m2 SCT
09:01 20.8 °C 13.5 °C 1010.7 hPa ESE 3.2 km/h 3.2 km/h 63% 0.0 mm 453.0 W/m2 CLR
09:06 20.9 °C 13.3 °C 1010.7 hPa ESE 3.2 km/h 3.2 km/h 62% 0.0 mm 467.7 W/m2 CLR
09:11 21.0 °C 13.4 °C 1010.7 hPa ESE 3.2 km/h 3.2 km/h 62% 0.0 mm 482.3 W/m2 CLR
09:16 21.1 °C 13.8 °C 1010.7 hPa ESE 3.2 km/h 3.2 km/h 63% 0.0 mm 498.0 W/m2 CLR
09:21 21.2 °C 13.6 °C 1010.7 hPa ESE 3.2 km/h 3.2 km/h 62% 0.0 mm 512.7 W/m2 CLR
09:26 21.3 °C 13.4 °C 1010.7 hPa ESE 3.2 km/h 3.2 km/h 61% 0.0 mm 527.4 W/m2 CLR
09:31 21.3 °C 13.4 °C 1010.7 hPa ESE 3.2 km/h 3.2 km/h 61% 0.0 mm 544.4 W/m2 CLR
09:36 21.4 °C 13.3 °C 1010.7 hPa ESE 3.2 km/h 3.2 km/h 60% 0.0 mm 560.3 W/m2 CLR
09:41 21.6 °C 13.5 °C 1010.7 hPa ESE 3.2 km/h 3.2 km/h 60% 0.0 mm 577.2 W/m2 CLR
09:46 21.8 °C 13.7 °C 1010.7 hPa ESE 3.2 km/h 3.2 km/h 60% 0.0 mm 592.0 W/m2 CLR
09:51 22.0 °C 13.6 °C 1010.7 hPa ESE 3.2 km/h 3.2 km/h 59% 0.0 mm 579.6 W/m2 CLR
09:56 22.1 °C 13.4 °C 1010.7 hPa ESE 3.2 km/h 3.2 km/h 58% 0.0 mm 619.1 W/m2 CLR
10:01 22.2 °C 13.3 °C 1010.7 hPa ESE 3.2 km/h 3.2 km/h 57% 0.0 mm 627.4 W/m2 CLR
10:06 22.3 °C 13.4 °C 1010.7 hPa ESE 3.2 km/h 3.2 km/h 57% 0.0 mm 647.7 W/m2 CLR
10:11 22.4 °C 13.2 °C 1010.7 hPa ESE 3.2 km/h 3.2 km/h 56% 0.0 mm 653.0 W/m2 CLR
10:16 22.5 °C 13.3 °C 1010.7 hPa ESE 3.2 km/h 3.2 km/h 56% 0.0 mm 678.6 W/m2 CLR
10:21 22.5 °C 13.0 °C 1010.7 hPa ESE 3.2 km/h 3.2 km/h 55% 0.0 mm 693.9 W/m2 CLR
10:26 22.7 °C 13.2 °C 1010.7 hPa ESE 3.2 km/h 3.2 km/h 55% 0.0 mm 707.8 W/m2 CLR
10:31 22.8 °C 13.3 °C 1010.7 hPa ESE 3.2 km/h 3.2 km/h 55% 0.0 mm 695.2 W/m2 CLR
10:36 22.9 °C 13.7 °C 1010.7 hPa ESE 3.2 km/h 3.2 km/h 56% 0.0 mm 734.1 W/m2 CLR
10:41 23.2 °C 13.3 °C 1010.7 hPa ESE 3.2 km/h 3.2 km/h 54% 0.0 mm 731.2 W/m2 CLR
10:46 23.3 °C 13.7 °C 1010.7 hPa ESE 3.2 km/h 3.2 km/h 55% 0.0 mm 750.0 W/m2 CLR
10:51 23.3 °C 13.8 °C 1010.7 hPa ESE 3.2 km/h 3.2 km/h 55% 0.0 mm 740.0 W/m2 CLR
10:56 23.2 °C 13.7 °C 1010.7 hPa ESE 3.2 km/h 3.2 km/h 55% 0.0 mm 752.3 W/m2 CLR
11:01 23.2 °C 13.7 °C 1010.7 hPa ESE 3.2 km/h 3.2 km/h 55% 0.0 mm 783.4 W/m2 FEW
11:06 23.3 °C 14.1 °C 1010.7 hPa ESE 3.2 km/h 3.2 km/h 56% 0.0 mm 799.4 W/m2 FEW
11:11 23.2 °C 13.7 °C 1010.7 hPa ESE 3.2 km/h 3.2 km/h 55% 0.0 mm 811.2 W/m2 FEW
11:16 23.2 °C 13.9 °C 1010.7 hPa ESE 3.2 km/h 3.2 km/h 56% 0.0 mm 823.0 W/m2 FEW
11:21 23.1 °C 13.8 °C 1011.1 hPa ESE 3.2 km/h 9.7 km/h 56% 0.0 mm 834.0 W/m2 FEW
11:26 23.1 °C 13.8 °C 1011.7 hPa SE 1.6 km/h 9.7 km/h 56% 0.0 mm 835.2 W/m2 FEW
11:36 23.2 °C 13.7 °C 1011.7 hPa WSW 4.8 km/h 9.7 km/h 55% 0.0 mm 845.1 W/m2 SCT
11:41 23.2 °C 13.4 °C 1010.7 hPa SSW 3.2 km/h 8.0 km/h 54% 0.0 mm 865.8 W/m2 SCT
11:51 23.3 °C 13.8 °C 1010.7 hPa South 3.2 km/h 6.4 km/h 55% 0.0 mm 900.4 W/m2 SCT
11:56 23.4 °C 13.9 °C 1010.7 hPa SSW 3.2 km/h 4.8 km/h 55% 0.0 mm 917.1 W/m2 SCT
12:01 23.6 °C 14.1 °C 1010.7 hPa SW 3.2 km/h 9.7 km/h 55% 0.0 mm 923.5 W/m2 FEW
12:06 23.9 °C 14.1 °C 1010.7 hPa SW 3.2 km/h 9.7 km/h 54% 0.0 mm 938.4 W/m2 FEW
12:11 24.1 °C 13.9 °C 1010.7 hPa SW 4.8 km/h 11.3 km/h 53% 0.0 mm 940.9 W/m2 FEW
12:16 24.2 °C 14.0 °C 1010.7 hPa SW 3.2 km/h 4.8 km/h 53% 0.0 mm 954.1 W/m2 FEW
12:21 24.1 °C 13.6 °C 1010.7 hPa SW 3.2 km/h 8.0 km/h 52% 0.0 mm 947.8 W/m2 FEW
12:26 24.0 °C 13.2 °C 1010.7 hPa SW 3.2 km/h 11.3 km/h 51% 0.0 mm 963.0 W/m2 FEW
12:31 24.1 °C 13.3 °C 1010.7 hPa WSW 4.8 km/h 9.7 km/h 51% 0.0 mm 973.4 W/m2 SCT
12:36 24.2 °C 13.4 °C 1010.7 hPa WSW 3.2 km/h 8.0 km/h 51% 0.0 mm 974.9 W/m2 SCT
12:41 24.4 °C 13.6 °C 1010.7 hPa SSW 3.2 km/h 9.7 km/h 51% 0.0 mm 989.4 W/m2 SCT
12:46 24.6 °C 13.8 °C 1010.7 hPa WSW 3.2 km/h 9.7 km/h 51% 0.0 mm 985.9 W/m2 SCT
12:51 24.8 °C 14.0 °C 1010.7 hPa WNW 3.2 km/h 9.7 km/h 51% 0.0 mm 996.6 W/m2 SCT
12:56 25.0 °C 13.6 °C 1010.7 hPa WNW 3.2 km/h 9.7 km/h 49% 0.0 mm 1001.3 W/m2 SCT
13:01 25.2 °C 14.0 °C 1010.7 hPa West 3.2 km/h 6.4 km/h 50% 0.0 mm 1005.0 W/m2 SCT
13:06 25.5 °C 14.0 °C 1010.7 hPa WSW 4.8 km/h 8.0 km/h 49% 0.0 mm 1012.8 W/m2 SCT
13:11 25.7 °C 14.5 °C 1010.7 hPa South 4.8 km/h 12.9 km/h 50% 0.0 mm 1005.2 W/m2 SCT
13:16 25.6 °C 14.1 °C 1010.7 hPa SSE 1.6 km/h 8.0 km/h 49% 0.0 mm 1014.2 W/m2 SCT
13:21 25.8 °C 13.9 °C 1010.7 hPa South 4.8 km/h 8.0 km/h 48% 0.0 mm 1014.0 W/m2 SCT
13:26 26.0 °C 13.8 °C 1010.7 hPa SSE 4.8 km/h 8.0 km/h 47% 0.0 mm 1017.9 W/m2 SCT
13:31 26.1 °C 13.2 °C 1010.7 hPa South 3.2 km/h 9.7 km/h 45% 0.0 mm 1023.9 W/m2 SCT
13:36 26.3 °C 13.7 °C 1010.7 hPa SSW 1.6 km/h 8.0 km/h 46% 0.0 mm 1021.8 W/m2 SCT
13:41 26.6 °C 13.7 °C 1010.7 hPa SW 4.8 km/h 9.7 km/h 45% 0.0 mm 1024.8 W/m2 SCT
13:46 26.7 °C 13.8 °C 1010.7 hPa SW 3.2 km/h 11.3 km/h 45% 0.0 mm 1023.9 W/m2 SCT
13:51 26.8 °C 13.9 °C 1010.7 hPa SSW 3.2 km/h 12.9 km/h 45% 0.0 mm 1023.9 W/m2 SCT
13:56 26.9 °C 13.6 °C 1010.7 hPa SSE 8.0 km/h 11.3 km/h 44% 0.0 mm 1017.9 W/m2 SCT
14:01 27.2 °C 13.9 °C 1010.7 hPa SSW 4.8 km/h 11.3 km/h 44% 0.0 mm 1020.2 W/m2 SCT
14:06 27.4 °C 14.1 °C 1010.7 hPa South 8.0 km/h 11.3 km/h 44% 0.0 mm 1022.5 W/m2 SCT
14:11 27.3 °C 13.7 °C 1010.7 hPa SE 3.2 km/h 12.9 km/h 43% 0.0 mm 992.9 W/m2 SCT
14:16 27.1 °C 13.4 °C 1010.7 hPa SSE 3.2 km/h 9.7 km/h 43% 0.0 mm 1002.5 W/m2 SCT
14:21 27.2 °C 13.6 °C 1010.7 hPa SE 4.8 km/h 11.3 km/h 43% 0.0 mm 1007.0 W/m2 SCT
14:26 27.4 °C 13.3 °C 1010.7 hPa South 4.8 km/h 11.3 km/h 42% 0.0 mm 1007.4 W/m2 SCT
14:31 27.5 °C 13.8 °C 1010.7 hPa SW 4.8 km/h 9.7 km/h 43% 0.0 mm 1002.7 W/m2 SCT
14:36 27.5 °C 13.8 °C 1010.7 hPa SSW 8.0 km/h 9.7 km/h 43% 0.0 mm 994.0 W/m2 SCT
14:41 27.4 °C 13.3 °C 1010.7 hPa SSW 4.8 km/h 8.0 km/h 42% 0.0 mm 992.5 W/m2 SCT
14:46 27.3 °C 13.6 °C 1010.7 hPa SSW 4.8 km/h 9.7 km/h 43% 0.0 mm 976.9 W/m2 SCT
14:51 26.9 °C 13.3 °C 1010.7 hPa SSW 4.8 km/h 8.0 km/h 43% 0.0 mm 946.6 W/m2 SCT
14:56 26.8 °C 13.2 °C 1010.7 hPa SSW 3.2 km/h 9.7 km/h 43% 0.0 mm 962.1 W/m2 SCT
15:01 27.0 °C 13.3 °C 1010.7 hPa SSE 4.8 km/h 11.3 km/h 43% 0.0 mm 939.9 W/m2 CLR
15:06 26.9 °C 13.6 °C 1010.7 hPa SE 4.8 km/h 9.7 km/h 44% 0.0 mm 950.2 W/m2 CLR
15:11 26.9 °C 13.6 °C 1010.7 hPa SE 4.8 km/h 9.7 km/h 44% 0.0 mm 943.9 W/m2 CLR
15:21 27.1 °C 13.4 °C 1010.7 hPa SW 4.8 km/h 9.7 km/h 43% 0.0 mm 934.8 W/m2 CLR
15:26 27.3 °C 14.0 °C 1010.7 hPa WSW 3.2 km/h 8.0 km/h 44% 0.0 mm 923.7 W/m2 CLR
15:31 27.6 °C 13.9 °C 1010.7 hPa SSW 3.2 km/h 12.9 km/h 43% 0.0 mm 920.0 W/m2 CLR
15:36 27.7 °C 14.0 °C 1010.4 hPa South 4.8 km/h 8.0 km/h 43% 0.0 mm 914.3 W/m2 CLR
15:41 27.6 °C 13.6 °C 1010.0 hPa South 4.8 km/h 8.0 km/h 42% 0.0 mm 885.8 W/m2 CLR
15:46 27.4 °C 13.3 °C 1010.0 hPa SSW 4.8 km/h 9.7 km/h 42% 0.0 mm 884.7 W/m2 CLR
15:51 27.3 °C 13.6 °C 1010.0 hPa SSW 8.0 km/h 9.7 km/h 43% 0.0 mm 873.5 W/m2 CLR
15:56 27.3 °C 13.6 °C 1010.0 hPa SSE 3.2 km/h 6.4 km/h 43% 0.0 mm 865.9 W/m2 CLR
16:01 27.4 °C 13.3 °C 1010.0 hPa SSE 3.2 km/h 6.4 km/h 42% 0.0 mm 856.4 W/m2 CLR
16:06 27.7 °C 13.9 °C 1010.0 hPa SSW 9.7 km/h 17.7 km/h 43% 0.0 mm 844.3 W/m2 CLR
16:11 28.0 °C 13.5 °C 1010.0 hPa SSW 4.8 km/h 14.5 km/h 41% 0.0 mm 833.8 W/m2 CLR
16:21 28.1 °C 13.6 °C 1010.0 hPa SW 4.8 km/h 8.0 km/h 41% 0.0 mm 803.0 W/m2 CLR
16:26 27.9 °C 13.8 °C 1010.0 hPa SW 3.2 km/h 9.7 km/h 42% 0.0 mm 791.6 W/m2 CLR
16:31 28.4 °C 14.2 °C 1010.0 hPa South 4.8 km/h 11.3 km/h 42% 0.0 mm 783.3 W/m2 CLR
16:36 28.5 °C 13.9 °C 1010.0 hPa SSW 8.0 km/h 9.7 km/h 41% 0.0 mm 770.2 W/m2 CLR
16:41 28.7 °C 14.5 °C 1010.0 hPa SSW 1.6 km/h 8.0 km/h 42% 0.0 mm 759.2 W/m2 CLR
16:46 28.8 °C 13.8 °C 1010.0 hPa SSW 4.8 km/h 9.7 km/h 40% 0.0 mm 743.6 W/m2 CLR
16:51 28.7 °C 13.8 °C 1010.0 hPa WSW 4.8 km/h 9.7 km/h 40% 0.0 mm 726.6 W/m2 CLR
16:56 28.4 °C 12.7 °C 1010.0 hPa WNW 4.8 km/h 14.5 km/h 38% 0.0 mm 708.3 W/m2 CLR
17:01 28.2 °C 12.6 °C 1010.0 hPa WSW 4.8 km/h 11.3 km/h 38% 0.0 mm 659.1 W/m2 SCT
17:06 28.1 °C 12.8 °C 1010.0 hPa WSW 4.8 km/h 11.3 km/h 39% 0.0 mm 661.1 W/m2 SCT
17:11 27.8 °C 13.0 °C 1010.0 hPa SSW 1.6 km/h 9.7 km/h 40% 0.0 mm 633.1 W/m2 SCT
17:16 27.8 °C 12.9 °C 1010.0 hPa SSW 4.8 km/h 8.0 km/h 40% 0.0 mm 630.9 W/m2 SCT
17:21 27.8 °C 12.9 °C 1010.0 hPa West 4.8 km/h 11.3 km/h 40% 0.0 mm 574.7 W/m2 SCT
17:26 27.6 °C 12.8 °C 1010.0 hPa West 4.8 km/h 9.7 km/h 40% 0.0 mm 575.2 W/m2 SCT
17:31 27.2 °C 12.8 °C 1010.0 hPa WSW 4.8 km/h 11.3 km/h 41% 0.0 mm 555.3 W/m2 SCT
17:36 26.5 °C 12.9 °C 1010.0 hPa Calm   8.0 km/h 43% 0.0 mm 587.4 W/m2 SCT
17:41 26.4 °C 12.8 °C 1010.0 hPa WNW 8.0 km/h 8.0 km/h 43% 0.0 mm 572.7 W/m2 SCT
17:46 26.5 °C 12.9 °C 1010.0 hPa WSW 8.0 km/h 14.5 km/h 43% 0.0 mm 561.6 W/m2 SCT
17:51 26.6 °C 13.0 °C 1010.0 hPa WSW 4.8 km/h 11.3 km/h 43% 0.0 mm 539.0 W/m2 SCT
18:01 26.1 °C 12.6 °C 1010.7 hPa WSW 3.2 km/h 11.3 km/h 43% 0.0 mm 510.8 W/m2 SCT
18:06 26.2 °C 12.6 °C 1010.7 hPa SW 4.8 km/h 9.7 km/h 43% 0.0 mm 457.3 W/m2 SCT
18:11 26.1 °C 12.6 °C 1010.7 hPa SW 1.6 km/h 8.0 km/h 43% 0.0 mm 446.9 W/m2 SCT
18:16 26.0 °C 12.4 °C 1010.7 hPa SW 3.2 km/h 9.7 km/h 43% 0.0 mm 424.6 W/m2 SCT
18:21 25.9 °C 12.3 °C 1010.7 hPa SW 3.2 km/h 11.3 km/h 43% 0.0 mm 401.0 W/m2 SCT
18:26 25.9 °C 12.3 °C 1010.7 hPa WSW 8.0 km/h 9.7 km/h 43% 0.0 mm 361.0 W/m2 SCT
18:31 25.7 °C 12.2 °C 1010.7 hPa WNW 4.8 km/h 9.7 km/h 43% 0.0 mm 312.5 W/m2 BKN
18:36 25.6 °C 12.4 °C 1010.7 hPa West 4.8 km/h 8.0 km/h 44% 0.0 mm 271.4 W/m2 BKN
18:41 25.6 °C 12.4 °C 1010.7 hPa West 3.2 km/h 9.7 km/h 44% 0.0 mm 255.8 W/m2 BKN
41749 Viersen, NRW, D
Compliments of Weather Underground - 1.5 mb